| time (UTC) | temp F | wind direction | speed knots | gust knots | rain 1hr in | rain 24hr in | rain mn in | humidity % | barometer mb |
| 20260904135704 | 70 | 199 | 0.9 | 2.6 | 0.01 | 0.03 | 0.03 | 84 | 1019.9 |
| 20260904134659 | 70 | 82 | 0.0 | 1.7 | 0.01 | 0.03 | 0.03 | 85 | 1019.8 |
| 20260904133711 | 69 | 82 | 1.7 | 1.7 | 0.01 | 0.02 | 0.02 | 85 | 1019.8 |
| 20260904132702 | 69 | 82 | 0.0 | 0.9 | 0.01 | 0.02 | 0.02 | 85 | 1019.8 |
| 20260904131718 | 69 | 82 | 0.0 | 1.7 | 0.02 | 0.02 | 0.02 | 84 | 1019.6 |
| 20260904125703 | 69 | 109 | 2.6 | 3.5 | 0.02 | 0.02 | 0.02 | 83 | 1019.6 |
| 20260904124714 | 70 | 101 | 1.7 | 3.5 | 0.02 | 0.02 | 0.02 | 82 | 1019.5 |
| 20260904123709 | 70 | 130 | 2.6 | 3.5 | 0.01 | 0.01 | 0.01 | 79 | 1019.6 |
| 20260904122700 | 71 | 169 | 1.7 | 2.6 | 0.01 | 0.01 | 0.01 | 78 | 1019.6 |
| 20260904121707 | 71 | 194 | 1.7 | 4.3 | 0.00 | 0.00 | 0.00 | 76 | 1019.7 |
| 20260904120702 | 71 | 169 | 3.5 | 4.3 | 0.00 | 0.00 | 0.00 | 74 | 1019.6 |
| 20260904115717 | 71 | 194 | 1.7 | 3.5 | 0.00 | 0.00 | 0.00 | 74 | 1019.6 |
| 20260904113712 | 72 | 198 | 1.7 | 2.6 | 0.00 | 0.00 | 0.00 | 73 | 1019.4 |
| 20260904112703 | 72 | 197 | 0.9 | 1.7 | 0.00 | 0.00 | 0.00 | 72 | 1019.4 |
| 20260904111659 | 72 | 199 | 0.9 | 1.7 | 0.00 | 0.00 | 0.00 | 70 | 1019.5 |
| 20260904110705 | 72 | 197 | 0.9 | 2.6 | 0.00 | 0.00 | 0.00 | 69 | 1019.4 |
| 20260904105658 | 72 | 198 | 0.9 | 1.7 | 0.00 | 0.00 | 0.00 | 69 | 1019.6 |
| 20260904103702 | 72 | 198 | 0.0 | 1.7 | 0.00 | 0.00 | 0.00 | 68 | 1019.4 |
| 20260904102701 | 73 | 196 | 1.7 | 4.3 | 0.00 | 0.00 | 0.00 | 68 | 1019.3 |
| 20260904101707 | 73 | 200 | 2.6 | 5.2 | 0.00 | 0.00 | 0.00 | 67 | 1019.4 |
| 20260904100658 | 73 | 200 | 3.5 | 7.8 | 0.00 | 0.00 | 0.00 | 65 | 1019.1 |
| 20260904095656 | 73 | 217 | 5.2 | 9.6 | 0.00 | 0.00 | 0.00 | 63 | 1019.0 |
| 20260904094656 | 74 | 194 | 4.3 | 7.8 | 0.00 | 0.00 | 0.00 | 62 | 1018.9 |
| 20260904093707 | 74 | 190 | 2.6 | 7.8 | 0.00 | 0.00 | 0.00 | 62 | 1019.0 |
| 20260904092700 | 74 | 182 | 4.3 | 7.0 | 0.00 | 0.00 | 0.00 | 62 | 1019.0 |
| 20260904090701 | 74 | 170 | 3.5 | 8.7 | 0.00 | 0.00 | 0.00 | 61 | 1019.1 |
| 20260904085706 | 74 | 188 | 4.3 | 8.7 | 0.00 | 0.00 | 0.00 | 60 | 1019.2 |
| 20260904084701 | 75 | 209 | 6.1 | 12.2 | 0.00 | 0.00 | 0.00 | 60 | 1019.4 |
| 20260904083710 | 75 | 188 | 7.0 | 11.3 | 0.00 | 0.00 | 0.00 | 58 | 1019.2 |
| 20260904081709 | 76 | 189 | 7.0 | 13.0 | 0.00 | 0.00 | 0.00 | 55 | 1019.2 |
| 20260904080724 | 76 | 190 | 7.0 | 10.4 | 0.00 | 0.00 | 0.00 | 55 | 1019.1 |
| 20260904075709 | 77 | 225 | 7.8 | 13.0 | 0.00 | 0.00 | 0.00 | 55 | 1019.2 |
| 20260904074711 | 77 | 201 | 3.5 | 11.3 | 0.00 | 0.00 | 0.00 | 56 | 1019.0 |
| 20260904071721 | 80 | 209 | 6.1 | 13.9 | 0.00 | 0.00 | 0.00 | 51 | 1018.9 |
| 20260904070704 | 80 | 173 | 8.7 | 13.0 | 0.00 | 0.00 | 0.00 | 47 | 1018.6 |
| 20260904065656 | 80 | 181 | 5.2 | 10.4 | 0.00 | 0.00 | 0.00 | 45 | 1018.2 |
| 20260904063708 | 80 | 227 | 6.1 | 9.6 | 0.00 | 0.00 | 0.00 | 43 | 1018.1 |
| 20260904062705 | 80 | 213 | 3.5 | 6.1 | 0.00 | 0.00 | 0.00 | 41 | 1017.7 |
| 20260904061702 | 80 | 190 | 1.7 | 4.3 | 0.00 | 0.00 | 0.00 | 40 | 1017.7 |
| 20260904060654 | 79 | 240 | 5.2 | 7.8 | 0.00 | 0.00 | 0.00 | 41 | 1017.5 |
| 20260904055705 | 79 | 160 | 1.7 | 2.6 | 0.00 | 0.00 | 0.00 | 40 | 1017.2 |
| 20260904054702 | 79 | 153 | 0.9 | 2.6 | 0.00 | 0.00 | 0.00 | 40 | 1017.2 |
| 20260904053702 | 79 | 154 | 1.7 | 2.6 | 0.00 | 0.00 | 0.00 | 40 | 1017.1 |
| 20260904052659 | 80 | 76 | 1.7 | 1.7 | 0.00 | 0.00 | 0.00 | 39 | 1017.2 |
| 20260904051656 | 80 | 74 | 0.9 | 3.5 | 0.00 | 0.00 | 0.00 | 38 | 1017.3 |
| 20260904050711 | 81 | 71 | 1.7 | 1.7 | 0.00 | 0.00 | 0.00 | 37 | 1017.2 |
| 20260904045704 | 82 | 74 | 0.9 | 1.7 | 0.00 | 0.00 | 0.00 | 36 | 1017.3 |
| 20260904044703 | 83 | 74 | 0.0 | 1.7 | 0.00 | 0.00 | 0.00 | 36 | 1017.2 |
| 20260904043654 | 83 | 49 | 0.0 | 0.9 | 0.00 | 0.00 | 0.00 | 36 | 1017.0 |
| 20260904041651 | 84 | 50 | 0.0 | 0.0 | 0.00 | 0.00 | 0.00 | 35 | 1017.2 |
| 20260904040702 | 84 | 49 | 0.0 | 0.9 | 0.00 | 0.00 | 0.00 | 35 | 1017.1 |
| 20260904035707 | 84 | 50 | 0.9 | 1.7 | 0.00 | 0.00 | 0.00 | 35 | 1017.2 |
| 20260904034652 | 85 | 59 | 0.9 | 2.6 | 0.00 | 0.00 | 0.00 | 34 | 1017.0 |
| 20260904032651 | 85 | 26 | 0.9 | 2.6 | 0.00 | 0.00 | 0.00 | 34 | 1016.7 |
| 20260904030703 | 86 | 32 | 0.0 | 1.7 | 0.00 | 0.00 | 0.00 | 33 | 1016.7 |
| 20260904025701 | 86 | 36 | 0.9 | 1.7 | 0.00 | 0.00 | 0.00 | 33 | 1016.5 |
| 20260904023703 | 87 | 346 | 3.5 | 7.0 | 0.00 | 0.00 | 0.00 | 32 | 1016.3 |
| 20260904021703 | 88 | 295 | 2.6 | 6.1 | 0.00 | 0.00 | 0.00 | 30 | 1015.9 |
| 20260904020657 | 88 | 279 | 3.5 | 7.8 | 0.00 | 0.00 | 0.00 | 30 | 1015.8 |
| 20260904015653 | 89 | 264 | 3.5 | 7.8 | 0.00 | 0.00 | 0.00 | 30 | 1015.5 |
| 20260904012703 | 90 | 258 | 2.6 | 6.1 | 0.00 | 0.00 | 0.00 | 28 | 1015.5 |
| 20260904011659 | 91 | 273 | 1.7 | 3.5 | 0.00 | 0.00 | 0.00 | 27 | 1015.5 |
| 20260904010651 | 92 | 313 | 2.6 | 7.0 | 0.00 | 0.00 | 0.00 | 26 | 1015.5 |
| 20260904005703 | 92 | 275 | 1.7 | 7.8 | 0.00 | 0.00 | 0.00 | 26 | 1015.4 |
| 20260904003657 | 92 | 275 | 3.5 | 7.0 | 0.00 | 0.00 | 0.00 | 27 | 1015.4 |
| 20260904002649 | 92 | 265 | 2.6 | 7.0 | 0.00 | 0.00 | 0.00 | 27 | 1015.4 |
| 20260904001647 | 92 | 237 | 2.6 | 8.7 | 0.00 | 0.00 | 0.00 | 27 | 1015.4 |
| 20260903235700 | 93 | 246 | 5.2 | 9.6 | 0.00 | 0.00 | 0.00 | 27 | 1015.3 |
| 20260903234653 | 93 | 252 | 7.0 | 8.7 | 0.00 | 0.00 | 0.00 | 27 | 1015.2 |
| 20260903233646 | 93 | 272 | 3.5 | 9.6 | 0.00 | 0.00 | 0.00 | 27 | 1015.2 |
| 20260903232656 | 92 | 277 | 4.3 | 9.6 | 0.00 | 0.00 | 0.00 | 28 | 1015.2 |
| 20260903231651 | 92 | 247 | 7.0 | 10.4 | 0.00 | 0.00 | 0.00 | 29 | 1015.2 |
| 20260903230649 | 92 | 241 | 7.8 | 13.0 | 0.00 | 0.00 | 0.00 | 29 | 1015.2 |
| 20260903225658 | 93 | 247 | 9.6 | 13.9 | 0.00 | 0.00 | 0.00 | 28 | 1015.1 |
| 20260903224648 | 94 | 228 | 5.2 | 10.4 | 0.00 | 0.00 | 0.00 | 25 | 1015.1 |
| 20260903223703 | 94 | 227 | 7.8 | 10.4 | 0.00 | 0.00 | 0.00 | 25 | 1015.2 |
| 20260903220650 | 95 | 319 | 1.7 | 9.6 | 0.00 | 0.00 | 0.00 | 25 | 1015.3 |
| 20260903214644 | 93 | 281 | 5.2 | 9.6 | 0.00 | 0.00 | 0.00 | 26 | 1015.5 |
| 20260903213702 | 95 | 302 | 1.7 | 6.1 | 0.00 | 0.00 | 0.00 | 26 | 1015.5 |
| 20260903212700 | 95 | 234 | 5.2 | 11.3 | 0.00 | 0.00 | 0.00 | 25 | 1015.9 |
| 20260903205645 | 94 | 271 | 3.5 | 8.7 | 0.00 | 0.00 | 0.00 | 25 | 1016.2 |
| 20260903204643 | 94 | 229 | 7.0 | 13.9 | 0.00 | 0.00 | 0.00 | 25 | 1016.5 |
| 20260903202700 | 94 | 255 | 3.5 | 7.8 | 0.00 | 0.00 | 0.00 | 25 | 1016.7 |
| 20260903201656 | 94 | 227 | 1.7 | 4.3 | 0.00 | 0.00 | 0.00 | 24 | 1016.7 |
| 20260903195648 | 95 | 289 | 0.9 | 8.7 | 0.00 | 0.00 | 0.00 | 24 | 1017.0 |
| 20260903194700 | 94 | 211 | 4.3 | 8.7 | 0.00 | 0.00 | 0.00 | 24 | 1017.3 |
| 20260903193648 | 93 | 252 | 3.5 | 7.8 | 0.00 | 0.00 | 0.00 | 25 | 1017.3 |
| 20260903192645 | 92 | 258 | 2.6 | 7.0 | 0.00 | 0.00 | 0.00 | 26 | 1017.6 |
| 20260903191642 | 93 | 252 | 5.2 | 10.4 | 0.00 | 0.00 | 0.00 | 26 | 1017.6 |
| 20260903190657 | 93 | 225 | 4.3 | 9.6 | 0.00 | 0.00 | 0.00 | 27 | 1017.8 |
| 20260903185643 | 94 | 271 | 3.5 | 11.3 | 0.00 | 0.00 | 0.00 | 27 | 1017.9 |
| 20260903184659 | 94 | 251 | 4.3 | 9.6 | 0.00 | 0.00 | 0.00 | 27 | 1018.3 |
| 20260903183653 | 93 | 238 | 5.2 | 7.8 | 0.00 | 0.00 | 0.00 | 28 | 1018.4 |
| 20260903182709 | 92 | 193 | 3.5 | 7.8 | 0.00 | 0.00 | 0.00 | 28 | 1018.4 |
| 20260903181638 | 91 | 134 | 2.6 | 10.4 | 0.00 | 0.00 | 0.00 | 29 | 1018.8 |
| 20260903180650 | 91 | 242 | 1.7 | 4.3 | 0.00 | 0.00 | 0.00 | 29 | 1018.8 |
| 20260903174638 | 90 | 211 | 0.9 | 5.2 | 0.00 | 0.00 | 0.00 | 30 | 1019.3 |
| 20260903173648 | 89 | 254 | 0.0 | 3.5 | 0.00 | 0.00 | 0.00 | 31 | 1019.4 |
| 20260903172640 | 88 | 190 | 0.9 | 4.3 | 0.00 | 0.00 | 0.00 | 33 | 1019.4 |
| 20260903171646 | 86 | 229 | 0.9 | 3.5 | 0.00 | 0.00 | 0.00 | 36 | 1019.4 |
| 20260903170637 | 86 | 283 | 2.6 | 3.5 | 0.00 | 0.00 | 0.00 | 37 | 1019.4 |
| 20260903165651 | 85 | 275 | 0.9 | 4.3 | 0.00 | 0.00 | 0.00 | 39 | 1019.5 |
| 20260903164639 | 84 | 215 | 1.7 | 5.2 | 0.00 | 0.00 | 0.00 | 41 | 1019.5 |
| 20260903163649 | 83 | 224 | 2.6 | 6.1 | 0.00 | 0.00 | 0.00 | 42 | 1019.6 |
| 20260903162650 | 83 | 238 | 0.0 | 4.3 | 0.00 | 0.00 | 0.00 | 42 | 1019.6 |
| 20260903161642 | 83 | 236 | 3.5 | 6.1 | 0.00 | 0.00 | 0.00 | 43 | 1019.5 |
| 20260903160636 | 83 | 243 | 2.6 | 7.0 | 0.00 | 0.00 | 0.00 | 44 | 1019.5 |
| 20260903155654 | 82 | 184 | 2.6 | 6.1 | 0.00 | 0.00 | 0.00 | 45 | 1019.4 |
| 20260903154647 | 82 | 262 | 5.2 | 7.0 | 0.00 | 0.00 | 0.00 | 46 | 1019.5 |
| 20260903153654 | 82 | 186 | 4.3 | 7.8 | 0.00 | 0.00 | 0.00 | 46 | 1019.6 |
| 20260903152645 | 82 | 269 | 5.2 | 9.6 | 0.00 | 0.00 | 0.00 | 46 | 1019.7 |
| 20260903150654 | 80 | 229 | 3.5 | 7.0 | 0.00 | 0.00 | 0.00 | 48 | 1019.7 |
| 20260903145646 | 79 | 194 | 3.5 | 7.8 | 0.00 | 0.00 | 0.00 | 49 | 1019.7 |
| 20260903143638 | 77 | 184 | 3.5 | 7.0 | 0.00 | 0.00 | 0.00 | 53 | 1019.7 |
| 20260903142637 | 76 | 221 | 2.6 | 7.0 | 0.00 | 0.00 | 0.00 | 54 | 1019.7 |
| 20260903141648 | 76 | 186 | 2.6 | 5.2 | 0.00 | 0.00 | 0.00 | 53 | 1019.7 |
| 20260903140639 | 76 | 174 | 4.3 | 9.6 | 0.00 | 0.00 | 0.00 | 53 | 1019.7 |